Regional Weather Roundup
Issued by NWS

Home | Current Version | Previous Version | Text Only | Print | Product List | Glossary Off
Versions: 1 2 3 4 5 6 7 8 9 10 11 12 13 14 15 16 17 18 19 20 21 22 23 24 25 26 27 28 29 30 31 32 33 34 35 36 37 38 39 40 41 42 43 44 45 46 47 48 49 50

000
ASUS45 KBOU 271307
RWRCO

WEATHER ROUNDUP FOR COLORADO
NATIONAL WEATHER SERVICE DENVER/BOULDER CO
700 AM MDT WED MAY 27 2015

NOTE: "FAIR" INDICATES FEW OR NO CLOUDS BELOW 12000 FEET WITH NO
SIGNIFICANT WEATHER AND/OR OBSTRUCTIONS TO VISIBILITY.

COZ001>005-013-030-031-271400-
...NORTHWEST COLORADO...

CITY           SKY/WX    TMP DP  RH WIND       PRES   REMARKS
CRAIG          CLOUDY    50  44  80 SE3       30.17R
HAYDEN         CLOUDY    46  43  87 S3        30.18S
MEEKER         MOSUNNY   44  42  93 CALM      30.19R
MOUNT WERNER   NOT AVBL
STEAMBOAT SPGS CLOUDY    45  43  94 SE3       30.19S
WALDEN         PTSUNNY   41  36  81 SW9       30.21R
$$

COZ006>008-011-271400-
...WEST CENTRAL VALLEYS...

CITY           SKY/WX    TMP DP  RH WIND       PRES   REMARKS
GRAND JUNCTION MOSUNNY   49  47  93 E8        30.13R
MONTROSE       MOSUNNY   46  43  89 SW3       30.19S
EAGLE          PTSUNNY   45  43  93 CALM      30.22S
RIFLE          SUNNY     45  43  93 CALM      30.17R
DELTA          MOSUNNY   49  45  86 MISG      30.17S
NUCLA          MOSUNNY   46  41  81 SE6       30.21S
$$

COZ017>023-064>068-271400-
...SOUTHWEST COLORADO...

CITY           SKY/WX    TMP DP  RH WIND       PRES   REMARKS
DURANGO        SUNNY     44  40  85 CALM      30.22R
CORTEZ         MOSUNNY   44  41  89 CALM      30.18R
PAGOSA SPRINGS SUNNY     43  42  95 CALM      30.28R
TELLURIDE      MOSUNNY   39  36  87 SE7       30.32F
WOLF CREEK PAS NOT AVBL
$$

COZ009-010-012-014-032>034-037-058>063-271400-
...CENTRAL COLORADO...

CITY           SKY/WX    TMP DP  RH WIND       PRES   REMARKS
ASPEN          NOT AVBL
BUENA VISTA    PTSUNNY   42  36  81 W5        30.26R
COPPER MTN     CLOUDY    37  28  70 SW12G25   30.38S HAZE
BERTHOUD PASS  PTSUNNY   30  21  69 W31G40    30.36F WCI  15
COTTONWOOD PAS PTSUNNY   43  32  65 CALM      30.31S
GUNNISON       MOSUNNY   39  36  87 N6        30.31S
KREMMLING      CLOUDY    46  41  81 SE3       30.22R
LEADVILLE      CLOUDY    35  33  92 S3        30.30R
SALIDA         PTSUNNY   51  37  57 W6        30.31F
SUNLIGHT       MOSUNNY   36  36 100 CALM      30.35S
WILKERSON PASS SUNNY     32  30  93 SW10G18   30.37F WCI  24
$$

COZ069>075-271400-
...SAN LUIS VALLEY/SANGRE DE CRISTO MOUNTAINS...

CITY           SKY/WX    TMP DP  RH WIND       PRES   REMARKS
ALAMOSA        MOSUNNY   42  39  89 CALM      30.27R
LA VETA PASS   MOSUNNY  N/A N/A N/A MISG      30.35R
SAGUACHE       PTSUNNY   41  37  87 N8        30.29S
$$

COZ035-036-038>040-271400-
...NORTHERN COLORADO FRONT RANGE...

CITY           SKY/WX    TMP DP  RH WIND       PRES   REMARKS
DENVER INTL AP PTSUNNY   50  43  77 NE3       30.07S
DMNS CITY PARK   N/A     54  42  63 S6G12     30.07S
AURORA         MOSUNNY   51  42  70 S9        30.08F
FRONT RANGE AP MOSUNNY   55  45  67 SW8       30.09R
ERIE MUNI ARPT SUNNY     48  46  91 CALM      30.07S
BOULDER MUN AP SUNNY     52  45  76 CALM      30.07S
CENTENNIAL     MOSUNNY   50  44  80 S6        30.09F
BROOMFIELD     MOSUNNY   50  43  76 CALM      30.09S
FORT COLLINS   SUNNY     50  48  93 CALM      30.08R
LONGMONT       SUNNY     53  45  75 S6        30.09R
$$

COZ041-046-047-076>085-087-088-271400-
...PIKES PEAK/PALMER DIVIDE AND SOUTHERN FOOTHILLS...

CITY           SKY/WX    TMP DP  RH WIND       PRES   REMARKS
COLO. SPRINGS  MOSUNNY   51  45  79 E5        30.16S
A. F. ACADEMY  SUNNY     43  43  99 N8        30.15F
ELLICOTT       SUNNY    N/A N/A N/A CALM      30.14S
FALCON         SUNNY     49  44  83 S5        30.18S
FORT CARSON    NOT AVBL
LIMON          MOSUNNY   51  47  86 S8        30.12R
MONUMENT HILL  SUNNY     46  41  81 MISG      30.16F
TRINIDAD       SUNNY     52  46  80 W7        30.15R
$$

COZ042>045-048>051-090-091-271400-
...NORTHEAST COLORADO...

CITY           SKY/WX    TMP DP  RH WIND       PRES   REMARKS
GREELEY ARPT   MOSUNNY   48  46  93 CALM      30.06S
AKRON          PTSUNNY   53  49  86 S7        30.06S
BURLINGTON     CLOUDY    55  50  83 S13       30.08R
WRAY           PTSUNNY   54  52  94 E8        30.06S
STERLING       PTSUNNY   54  52  94 CALM      30.04S
HOLYOKE        PTSUNNY   55  50  82 SE8       30.07R
FORT MORGAN    PTSUNNY   50  48  93 E3        30.06S
$$

COZ086-089-092>099-271400-
...SOUTHEAST COLORADO...

CITY           SKY/WX    TMP DP  RH WIND       PRES   REMARKS
PUEBLO         SUNNY     51  49  92 W6        30.10S
LA JUNTA       SUNNY     56  52  86 NW3       30.09R
LAMAR          MOSUNNY   55  53  93 CALM      30.06S
SPRINGFIELD      N/A     56  50  80 SW7       30.12R
$$



USA.gov is the U.S. government's official web portal to all federal, state and local government web resources and services.